<?xml version='1.0' standalone='yes' ?><gpx version='1.1' creator='ALPINTOUREN.AT' xmlns='http://www.topografix.com/GPX/1/1' xmlns:xsi='http://www.w3.org/2001/XMLSchema-instance' xsi:schemaLocation='http://www.topografix.com/GPX/1/1 http://www.topografix.com/GPX/1/1/gpx.xsd'><metadata><name>Tracks</name><time>2007-01-01T01:00:00Z</time></metadata>
<trk><name>LINIE1</name><number>1</number><trkseg>
<trkpt lat='47.39793999' lon='13.88242683'><ele>0</ele><time>2007-01-01T01:00:00Z</time><type>Trackpoint</type></trkpt>
<trkpt lat='47.39753716' lon='13.88202524'><ele>0</ele><time>2007-01-01T01:00:00Z</time><type>Trackpoint</type></trkpt>
<trkpt lat='47.39677552' lon='13.88142124'><ele>0</ele><time>2007-01-01T01:00:00Z</time><type>Trackpoint</type></trkpt>
<trkpt lat='47.39650538' lon='13.88148467'><ele>0</ele><time>2007-01-01T01:00:00Z</time><type>Trackpoint</type></trkpt>
<trkpt lat='47.39645629' lon='13.88234518'><ele>0</ele><time>2007-01-01T01:00:00Z</time><type>Trackpoint</type></trkpt>
<trkpt lat='47.39623144' lon='13.88234284'><ele>0</ele><time>2007-01-01T01:00:00Z</time><type>Trackpoint</type></trkpt>
<trkpt lat='47.39596193' lon='13.88227381'><ele>0</ele><time>2007-01-01T01:00:00Z</time><type>Trackpoint</type></trkpt>
<trkpt lat='47.39587104' lon='13.88247156'><ele>0</ele><time>2007-01-01T01:00:00Z</time><type>Trackpoint</type></trkpt>
<trkpt lat='47.39595717' lon='13.88326724'><ele>0</ele><time>2007-01-01T01:00:00Z</time><type>Trackpoint</type></trkpt>
<trkpt lat='47.39577602' lon='13.88353028'><ele>0</ele><time>2007-01-01T01:00:00Z</time><type>Trackpoint</type></trkpt>
<trkpt lat='47.39546091' lon='13.88359323'><ele>0</ele><time>2007-01-01T01:00:00Z</time><type>Trackpoint</type></trkpt>
<trkpt lat='47.39492253' lon='13.88332271'><ele>0</ele><time>2007-01-01T01:00:00Z</time><type>Trackpoint</type></trkpt>
<trkpt lat='47.39465271' lon='13.88331990'><ele>0</ele><time>2007-01-01T01:00:00Z</time><type>Trackpoint</type></trkpt>
<trkpt lat='47.39397529' lon='13.88390892'><ele>0</ele><time>2007-01-01T01:00:00Z</time><type>Trackpoint</type></trkpt>
<trkpt lat='47.39329914' lon='13.88423302'><ele>0</ele><time>2007-01-01T01:00:00Z</time><type>Trackpoint</type></trkpt>
<trkpt lat='47.39257898' lon='13.88435796'><ele>0</ele><time>2007-01-01T01:00:00Z</time><type>Trackpoint</type></trkpt>
<trkpt lat='47.39239910' lon='13.88435609'><ele>0</ele><time>2007-01-01T01:00:00Z</time><type>Trackpoint</type></trkpt>
<trkpt lat='47.39221890' lon='13.88442044'><ele>0</ele><time>2007-01-01T01:00:00Z</time><type>Trackpoint</type></trkpt>
<trkpt lat='47.39172231' lon='13.88481262'><ele>0</ele><time>2007-01-01T01:00:00Z</time><type>Trackpoint</type></trkpt>
<trkpt lat='47.39091125' lon='13.88513529'><ele>0</ele><time>2007-01-01T01:00:00Z</time><type>Trackpoint</type></trkpt>
<trkpt lat='47.39028071' lon='13.88532738'><ele>0</ele><time>2007-01-01T01:00:00Z</time><type>Trackpoint</type></trkpt>
<trkpt lat='47.38942563' lon='13.88545090'><ele>0</ele><time>2007-01-01T01:00:00Z</time><type>Trackpoint</type></trkpt>
<trkpt lat='47.38874948' lon='13.88577495'><ele>0</ele><time>2007-01-01T01:00:00Z</time><type>Trackpoint</type></trkpt>
<trkpt lat='47.38816391' lon='13.88596750'><ele>0</ele><time>2007-01-01T01:00:00Z</time><type>Trackpoint</type></trkpt>
<trkpt lat='47.38730819' lon='13.88622344'><ele>0</ele><time>2007-01-01T01:00:00Z</time><type>Trackpoint</type></trkpt>
<trkpt lat='47.38658739' lon='13.88648078'><ele>0</ele><time>2007-01-01T01:00:00Z</time><type>Trackpoint</type></trkpt>
<trkpt lat='47.38609208' lon='13.88660804'><ele>0</ele><time>2007-01-01T01:00:00Z</time><type>Trackpoint</type></trkpt>
<trkpt lat='47.38523732' lon='13.88666531'><ele>0</ele><time>2007-01-01T01:00:00Z</time><type>Trackpoint</type></trkpt>
<trkpt lat='47.38429326' lon='13.88658922'><ele>0</ele><time>2007-01-01T01:00:00Z</time><type>Trackpoint</type></trkpt>
<trkpt lat='47.38303376' lon='13.88664225'><ele>0</ele><time>2007-01-01T01:00:00Z</time><type>Trackpoint</type></trkpt>
<trkpt lat='47.38271865' lon='13.88670517'><ele>0</ele><time>2007-01-01T01:00:00Z</time><type>Trackpoint</type></trkpt>
<trkpt lat='47.38235857' lon='13.88676762'><ele>0</ele><time>2007-01-01T01:00:00Z</time><type>Trackpoint</type></trkpt>
<trkpt lat='47.38186389' lon='13.88676244'><ele>0</ele><time>2007-01-01T01:00:00Z</time><type>Trackpoint</type></trkpt>
<trkpt lat='47.38123526' lon='13.88655722'><ele>0</ele><time>2007-01-01T01:00:00Z</time><type>Trackpoint</type></trkpt>
<trkpt lat='47.38078492' lon='13.88668494'><ele>0</ele><time>2007-01-01T01:00:00Z</time><type>Trackpoint</type></trkpt>
<trkpt lat='47.38046949' lon='13.88681406'><ele>0</ele><time>2007-01-01T01:00:00Z</time><type>Trackpoint</type></trkpt>
<trkpt lat='47.38015341' lon='13.88707560'><ele>0</ele><time>2007-01-01T01:00:00Z</time><type>Trackpoint</type></trkpt>
<trkpt lat='47.37983830' lon='13.88713851'><ele>0</ele><time>2007-01-01T01:00:00Z</time><type>Trackpoint</type></trkpt>
<trkpt lat='47.37943325' lon='13.88720048'><ele>0</ele><time>2007-01-01T01:00:00Z</time><type>Trackpoint</type></trkpt>
<trkpt lat='47.37916470' lon='13.88693283'><ele>0</ele><time>2007-01-01T01:00:00Z</time><type>Trackpoint</type></trkpt>
<trkpt lat='47.37898482' lon='13.88693094'><ele>0</ele><time>2007-01-01T01:00:00Z</time><type>Trackpoint</type></trkpt>
<trkpt lat='47.37889328' lon='13.88726104'><ele>0</ele><time>2007-01-01T01:00:00Z</time><type>Trackpoint</type></trkpt>
<trkpt lat='47.37884543' lon='13.88785643'><ele>0</ele><time>2007-01-01T01:00:00Z</time><type>Trackpoint</type></trkpt>
<trkpt lat='47.37893409' lon='13.88812220'><ele>0</ele><time>2007-01-01T01:00:00Z</time><type>Trackpoint</type></trkpt>
<trkpt lat='47.37960576' lon='13.88872515'><ele>0</ele><time>2007-01-01T01:00:00Z</time><type>Trackpoint</type></trkpt>
<trkpt lat='47.38032336' lon='13.88912996'><ele>0</ele><time>2007-01-01T01:00:00Z</time><type>Trackpoint</type></trkpt>
<trkpt lat='47.38090445' lon='13.88986441'><ele>0</ele><time>2007-01-01T01:00:00Z</time><type>Trackpoint</type></trkpt>
<trkpt lat='47.38121667' lon='13.89039740'><ele>0</ele><time>2007-01-01T01:00:00Z</time><type>Trackpoint</type></trkpt>
<trkpt lat='47.38139430' lon='13.89086277'><ele>0</ele><time>2007-01-01T01:00:00Z</time><type>Trackpoint</type></trkpt>
<trkpt lat='47.38175148' lon='13.89139625'><ele>0</ele><time>2007-01-01T01:00:00Z</time><type>Trackpoint</type></trkpt>
<trkpt lat='47.38314137' lon='13.89227172'><ele>0</ele><time>2007-01-01T01:00:00Z</time><type>Trackpoint</type></trkpt>
<trkpt lat='47.38417149' lon='13.89314343'><ele>0</ele><time>2007-01-01T01:00:00Z</time><type>Trackpoint</type></trkpt>
<trkpt lat='47.38475546' lon='13.89328205'><ele>0</ele><time>2007-01-01T01:00:00Z</time><type>Trackpoint</type></trkpt>
<trkpt lat='47.38488972' lon='13.89341591'><ele>0</ele><time>2007-01-01T01:00:00Z</time><type>Trackpoint</type></trkpt>
<trkpt lat='47.38493405' lon='13.89354882'><ele>0</ele><time>2007-01-01T01:00:00Z</time><type>Trackpoint</type></trkpt>
<trkpt lat='47.38466390' lon='13.89361217'><ele>0</ele><time>2007-01-01T01:00:00Z</time><type>Trackpoint</type></trkpt>
<trkpt lat='47.38385476' lon='13.89353738'><ele>0</ele><time>2007-01-01T01:00:00Z</time><type>Trackpoint</type></trkpt>
<trkpt lat='47.38219117' lon='13.89345354'><ele>0</ele><time>2007-01-01T01:00:00Z</time><type>Trackpoint</type></trkpt>
<trkpt lat='47.38061721' lon='13.89343687'><ele>0</ele><time>2007-01-01T01:00:00Z</time><type>Trackpoint</type></trkpt>
<trkpt lat='47.38025648' lon='13.89363169'><ele>0</ele><time>2007-01-01T01:00:00Z</time><type>Trackpoint</type></trkpt>
<trkpt lat='47.38003162' lon='13.89362930'><ele>0</ele><time>2007-01-01T01:00:00Z</time><type>Trackpoint</type></trkpt>
<trkpt lat='47.37918042' lon='13.89295818'><ele>0</ele><time>2007-01-01T01:00:00Z</time><type>Trackpoint</type></trkpt>
<trkpt lat='47.37868542' lon='13.89301915'><ele>0</ele><time>2007-01-01T01:00:00Z</time><type>Trackpoint</type></trkpt>
<trkpt lat='47.37751651' lon='13.89294057'><ele>0</ele><time>2007-01-01T01:00:00Z</time><type>Trackpoint</type></trkpt>
<trkpt lat='47.37661839' lon='13.89266624'><ele>0</ele><time>2007-01-01T01:00:00Z</time><type>Trackpoint</type></trkpt>
<trkpt lat='47.37617063' lon='13.89226426'><ele>0</ele><time>2007-01-01T01:00:00Z</time><type>Trackpoint</type></trkpt>
<trkpt lat='47.37563227' lon='13.89199375'><ele>0</ele><time>2007-01-01T01:00:00Z</time><type>Trackpoint</type></trkpt>
<trkpt lat='47.37540839' lon='13.89179276'><ele>0</ele><time>2007-01-01T01:00:00Z</time><type>Trackpoint</type></trkpt>
<trkpt lat='47.37532006' lon='13.89146080'><ele>0</ele><time>2007-01-01T01:00:00Z</time><type>Trackpoint</type></trkpt>
<trkpt lat='47.37518547' lon='13.89139317'><ele>0</ele><time>2007-01-01T01:00:00Z</time><type>Trackpoint</type></trkpt>
<trkpt lat='47.37500494' lon='13.89152368'><ele>0</ele><time>2007-01-01T01:00:00Z</time><type>Trackpoint</type></trkpt>
<trkpt lat='47.37500301' lon='13.89192089'><ele>0</ele><time>2007-01-01T01:00:00Z</time><type>Trackpoint</type></trkpt>
<trkpt lat='47.37513663' lon='13.89218713'><ele>0</ele><time>2007-01-01T01:00:00Z</time><type>Trackpoint</type></trkpt>
<trkpt lat='47.37594254' lon='13.89292392'><ele>0</ele><time>2007-01-01T01:00:00Z</time><type>Trackpoint</type></trkpt>
<trkpt lat='47.37594125' lon='13.89318873'><ele>0</ele><time>2007-01-01T01:00:00Z</time><type>Trackpoint</type></trkpt>
<trkpt lat='47.37576137' lon='13.89318683'><ele>0</ele><time>2007-01-01T01:00:00Z</time><type>Trackpoint</type></trkpt>
<trkpt lat='47.37549284' lon='13.89291916'><ele>0</ele><time>2007-01-01T01:00:00Z</time><type>Trackpoint</type></trkpt>
<trkpt lat='47.37535825' lon='13.89285153'><ele>0</ele><time>2007-01-01T01:00:00Z</time><type>Trackpoint</type></trkpt>
<trkpt lat='47.37459408' lon='13.89277724'><ele>0</ele><time>2007-01-01T01:00:00Z</time><type>Trackpoint</type></trkpt>
<trkpt lat='47.37436955' lon='13.89270866'><ele>0</ele><time>2007-01-01T01:00:00Z</time><type>Trackpoint</type></trkpt>
<trkpt lat='47.37405669' lon='13.89230813'><ele>0</ele><time>2007-01-01T01:00:00Z</time><type>Trackpoint</type></trkpt>
<trkpt lat='47.37388004' lon='13.89164422'><ele>0</ele><time>2007-01-01T01:00:00Z</time><type>Trackpoint</type></trkpt>
<trkpt lat='47.37343162' lon='13.89137467'><ele>0</ele><time>2007-01-01T01:00:00Z</time><type>Trackpoint</type></trkpt>
<trkpt lat='47.37289326' lon='13.89110418'><ele>0</ele><time>2007-01-01T01:00:00Z</time><type>Trackpoint</type></trkpt>
<trkpt lat='47.37289262' lon='13.89123658'><ele>0</ele><time>2007-01-01T01:00:00Z</time><type>Trackpoint</type></trkpt>
<trkpt lat='47.37307057' lon='13.89163567'><ele>0</ele><time>2007-01-01T01:00:00Z</time><type>Trackpoint</type></trkpt>
<trkpt lat='47.37342775' lon='13.89216907'><ele>0</ele><time>2007-01-01T01:00:00Z</time><type>Trackpoint</type></trkpt>
<trkpt lat='47.37346981' lon='13.89276535'><ele>0</ele><time>2007-01-01T01:00:00Z</time><type>Trackpoint</type></trkpt>
<trkpt lat='47.37346884' lon='13.89296395'><ele>0</ele><time>2007-01-01T01:00:00Z</time><type>Trackpoint</type></trkpt>
<trkpt lat='47.37337890' lon='13.89296300'><ele>0</ele><time>2007-01-01T01:00:00Z</time><type>Trackpoint</type></trkpt>
<trkpt lat='47.37324464' lon='13.89282917'><ele>0</ele><time>2007-01-01T01:00:00Z</time><type>Trackpoint</type></trkpt>
<trkpt lat='47.37302269' lon='13.89223100'><ele>0</ele><time>2007-01-01T01:00:00Z</time><type>Trackpoint</type></trkpt>
<trkpt lat='47.37266583' lon='13.89163140'><ele>0</ele><time>2007-01-01T01:00:00Z</time><type>Trackpoint</type></trkpt>
<trkpt lat='47.37181429' lon='13.89102660'><ele>0</ele><time>2007-01-01T01:00:00Z</time><type>Trackpoint</type></trkpt>
<trkpt lat='47.37136523' lon='13.89088946'><ele>0</ele><time>2007-01-01T01:00:00Z</time><type>Trackpoint</type></trkpt>
<trkpt lat='47.37051111' lon='13.89081426'><ele>0</ele><time>2007-01-01T01:00:00Z</time><type>Trackpoint</type></trkpt>
<trkpt lat='47.36997179' lon='13.89074238'><ele>0</ele><time>2007-01-01T01:00:00Z</time><type>Trackpoint</type></trkpt>
<trkpt lat='47.36988152' lon='13.89080763'><ele>0</ele><time>2007-01-01T01:00:00Z</time><type>Trackpoint</type></trkpt>
<trkpt lat='47.36983559' lon='13.89100574'><ele>0</ele><time>2007-01-01T01:00:00Z</time><type>Trackpoint</type></trkpt>
<trkpt lat='47.37010444' lon='13.89120717'><ele>0</ele><time>2007-01-01T01:00:00Z</time><type>Trackpoint</type></trkpt>
<trkpt lat='47.37019310' lon='13.89147291'><ele>0</ele><time>2007-01-01T01:00:00Z</time><type>Trackpoint</type></trkpt>
<trkpt lat='47.37036814' lon='13.89246775'><ele>0</ele><time>2007-01-01T01:00:00Z</time><type>Trackpoint</type></trkpt>
<trkpt lat='47.37054738' lon='13.89260205'><ele>0</ele><time>2007-01-01T01:00:00Z</time><type>Trackpoint</type></trkpt>
<trkpt lat='47.37126594' lon='13.89280825'><ele>0</ele><time>2007-01-01T01:00:00Z</time><type>Trackpoint</type></trkpt>
<trkpt lat='47.37153414' lon='13.89314209'><ele>0</ele><time>2007-01-01T01:00:00Z</time><type>Trackpoint</type></trkpt>
<trkpt lat='47.37171111' lon='13.89373977'><ele>0</ele><time>2007-01-01T01:00:00Z</time><type>Trackpoint</type></trkpt>
<trkpt lat='47.37197737' lon='13.89447082'><ele>0</ele><time>2007-01-01T01:00:00Z</time><type>Trackpoint</type></trkpt>
<trkpt lat='47.37184181' lon='13.89460178'><ele>0</ele><time>2007-01-01T01:00:00Z</time><type>Trackpoint</type></trkpt>
<trkpt lat='47.37170788' lon='13.89440176'><ele>0</ele><time>2007-01-01T01:00:00Z</time><type>Trackpoint</type></trkpt>
<trkpt lat='47.37144000' lon='13.89400171'><ele>0</ele><time>2007-01-01T01:00:00Z</time><type>Trackpoint</type></trkpt>
<trkpt lat='47.37121579' lon='13.89386693'><ele>0</ele><time>2007-01-01T01:00:00Z</time><type>Trackpoint</type></trkpt>
<trkpt lat='47.37067550' lon='13.89399360'><ele>0</ele><time>2007-01-01T01:00:00Z</time><type>Trackpoint</type></trkpt>
<trkpt lat='47.37044902' lon='13.89432220'><ele>0</ele><time>2007-01-01T01:00:00Z</time><type>Trackpoint</type></trkpt>
<trkpt lat='47.36981944' lon='13.89431553'><ele>0</ele><time>2007-01-01T01:00:00Z</time><type>Trackpoint</type></trkpt>
<trkpt lat='47.36941470' lon='13.89431124'><ele>0</ele><time>2007-01-01T01:00:00Z</time><type>Trackpoint</type></trkpt>
<trkpt lat='47.36914650' lon='13.89397740'><ele>0</ele><time>2007-01-01T01:00:00Z</time><type>Trackpoint</type></trkpt>
<trkpt lat='47.36843118' lon='13.89310925'><ele>0</ele><time>2007-01-01T01:00:00Z</time><type>Trackpoint</type></trkpt>
<trkpt lat='47.36798147' lon='13.89310450'><ele>0</ele><time>2007-01-01T01:00:00Z</time><type>Trackpoint</type></trkpt>
<trkpt lat='47.36789153' lon='13.89310354'><ele>0</ele><time>2007-01-01T01:00:00Z</time><type>Trackpoint</type></trkpt>
<trkpt lat='47.36762365' lon='13.89270353'><ele>0</ele><time>2007-01-01T01:00:00Z</time><type>Trackpoint</type></trkpt>
<trkpt lat='47.36722117' lon='13.89223591'><ele>0</ele><time>2007-01-01T01:00:00Z</time><type>Trackpoint</type></trkpt>
<trkpt lat='47.36695232' lon='13.89203448'><ele>0</ele><time>2007-01-01T01:00:00Z</time><type>Trackpoint</type></trkpt>
<trkpt lat='47.36681708' lon='13.89209925'><ele>0</ele><time>2007-01-01T01:00:00Z</time><type>Trackpoint</type></trkpt>
<trkpt lat='47.36636318' lon='13.89295498'><ele>0</ele><time>2007-01-01T01:00:00Z</time><type>Trackpoint</type></trkpt>
<trkpt lat='47.36595262' lon='13.89414214'><ele>0</ele><time>2007-01-01T01:00:00Z</time><type>Trackpoint</type></trkpt>
<trkpt lat='47.36545535' lon='13.89466642'><ele>0</ele><time>2007-01-01T01:00:00Z</time><type>Trackpoint</type></trkpt>
<trkpt lat='47.36491506' lon='13.89479307'><ele>0</ele><time>2007-01-01T01:00:00Z</time><type>Trackpoint</type></trkpt>
<trkpt lat='47.36397067' lon='13.89478305'><ele>0</ele><time>2007-01-01T01:00:00Z</time><type>Trackpoint</type></trkpt>
<trkpt lat='47.36325050' lon='13.89490779'><ele>0</ele><time>2007-01-01T01:00:00Z</time><type>Trackpoint</type></trkpt>
<trkpt lat='47.36293376' lon='13.89530157'><ele>0</ele><time>2007-01-01T01:00:00Z</time><type>Trackpoint</type></trkpt>
<trkpt lat='47.36252545' lon='13.89602533'><ele>0</ele><time>2007-01-01T01:00:00Z</time><type>Trackpoint</type></trkpt>
<trkpt lat='47.36198190' lon='13.89681382'><ele>0</ele><time>2007-01-01T01:00:00Z</time><type>Trackpoint</type></trkpt>
<trkpt lat='47.36085145' lon='13.89805935'><ele>0</ele><time>2007-01-01T01:00:00Z</time><type>Trackpoint</type></trkpt>
<trkpt lat='47.35990021' lon='13.89943912'><ele>0</ele><time>2007-01-01T01:00:00Z</time><type>Trackpoint</type></trkpt>
<trkpt lat='47.35976399' lon='13.89970241'><ele>0</ele><time>2007-01-01T01:00:00Z</time><type>Trackpoint</type></trkpt>
<trkpt lat='47.35976268' lon='13.89996714'><ele>0</ele><time>2007-01-01T01:00:00Z</time><type>Trackpoint</type></trkpt>
<trkpt lat='47.35994027' lon='13.90043235'><ele>0</ele><time>2007-01-01T01:00:00Z</time><type>Trackpoint</type></trkpt>
<trkpt lat='47.36060959' lon='13.90149853'><ele>0</ele><time>2007-01-01T01:00:00Z</time><type>Trackpoint</type></trkpt>
<trkpt lat='47.36096640' lon='13.90209805'><ele>0</ele><time>2007-01-01T01:00:00Z</time><type>Trackpoint</type></trkpt>
<trkpt lat='47.36114497' lon='13.90236472'><ele>0</ele><time>2007-01-01T01:00:00Z</time><type>Trackpoint</type></trkpt>
<trkpt lat='47.36150473' lon='13.90236859'><ele>0</ele><time>2007-01-01T01:00:00Z</time><type>Trackpoint</type></trkpt>
<trkpt lat='47.36172925' lon='13.90243720'><ele>0</ele><time>2007-01-01T01:00:00Z</time><type>Trackpoint</type></trkpt>
</trkseg></trk>
</gpx>
